Regional Weather Roundup
Issued by NWS Grand Forks, ND

Home | Current Version | Previous Version | Text Only | Print | Product List | Glossary On
Versions: 1 2 3 4 5 6 7 8 9 10 11 12 13 14 15 16 17 18 19 20 21 22 23 24 25 26 27 28 29 30 31 32 33 34 35 36 37 38 39 40 41 42 43 44 45 46 47 48 49 50
000
ASUS43 KFGF 260231
RWRFGF
PRAIRIE TO PINES  WEATHER ROUNDUP
NATIONAL WEATHER SERVICE EASTERN NORTH DAKOTA/GRAND FORKS ND
900 PM CDT MON JUL 25 2016

 **SATELLITE DATA USED TO AUGMENT SKY COVER AT AUTOMATED STATIONS**
 *****  WEATHER ACROSS EASTERN NORTH DAKOTA  *****

CITY           SKY/WX    TMP DP  RH WIND       PRES   REMARKS
GRAND FORKS    PTCLDY    84  69  60 E5        29.88F
GRAND FRKS AFB CLEAR     82  69  65 E5        29.89F
GRAND FRKS NWS   N/A     79 N/A N/A SE2         N/A
DEVILS LAKE    CLEAR     79  70  74 N10       29.94R
FARGO          PTCLDY    84  64  50 S8        29.91S
WAHPETON ARPT  CLEAR     75  64  69 SE9       29.94S
$$

 ***** WEATHER ACROSS CENTRAL AND WESTERN NORTH DAKOTA  *****

CITY           SKY/WX    TMP DP  RH WIND       PRES   REMARKS
BISMARCK       CLEAR     82  70  66 E7        29.90S
MINOT          CLEAR     81  69  67 N7        29.96R
JAMESTOWN      CLEAR     79  68  69 S3        29.91R
MINOT AFB      CLEAR     81  64  55 NE6       29.95S
GARRISON         N/A     80  70  71 NE7       29.95R
WILLISTON      CLEAR     85  57  38 NE7       29.98R
DICKINSON      CLEAR     79  58  48 NE10      29.95R
HETTINGER      MOCLDY    88  57  34 E13       29.96R
$$

 *****  OTHER AIRPORT OBSERVATIONS IN OUR AREA  *****

CITY           SKY/WX    TMP DP  RH WIND       PRES   REMARKS
WALHALLA       FAIR      73  70  88 CALM      29.94R
GRAFTON AIRPOR FAIR      75  72  88 NE5       29.93S
VALLEY CITY AR   N/A     77  68  73 S6        29.93S
CANDO          FAIR      73  70  88 E5        29.98S
CAVALIER APRT  FAIR      75  72  88 CALM      29.92S
GWINNER        FAIR      79  63  57 S10       29.92F
ROLLA          FAIR      73  70  88 NE3       30.00R
 ***** THE ABOVE OBSERVATIONS ARE NON NWS ARE NOT QUALITY
       CONTROLLED AND MAY MIS-REPORT RAIN FOR SNOW...
$$

  *****  WEATHER ACROSS NORTHERN MINNESOTA  *****

CITY           SKY/WX    TMP DP  RH WIND       PRES   REMARKS
FLAG ISLAND    CLEAR     77  61  57 W8        29.93R
WARROAD        CLEAR     75  68  78 CALM      29.95S
ROSEAU         CLEAR     75  68  78 CALM      29.94S
HALLOCK        CLOUDY    75  70  83 SE7       29.91F
THF RVR FALLS  MOCLDY    79  69  71 E6        29.94F
BAUDETTE       CLEAR     74  64  71 S3        29.95S
WASKISH        CLEAR     72  66  83 CALM      29.96S
CROOKSTON      CLEAR     77  70  78 SE7       29.91S
STEPHEN NDAWN    N/A     77  72  83 N8          N/A
GREENBUSH NDAW   N/A     75  70  83 SE1         N/A
$$
  *****  WEATHER ACROSS CENTRAL AND WEST MINNESOTA  *****

CITY           SKY/WX    TMP DP  RH WIND       PRES   REMARKS
FOSSTON        CLEAR     73  68  83 SE6       29.96S
BEMIDJI        CLEAR     77  64  65 S3        29.98S
PARK RAPIDS    CLEAR     79  66  64 S6        29.99F
ELBOW LAKE     FAIR      73  68  82 S9        29.99S
WADENA         CLEAR     72  66  83 S5        30.00S
DETROIT LAKES  CLEAR     75  66  73 S6        29.99S
MOORHEAD       CLEAR     79  66  65 SE7       29.93S
FERGUS FALLS   CLEAR     75  66  73 MISG      29.97S
MORRIS MN      CLEAR     73  66  78 S7        29.99S
STAPLES        CLEAR     72  66  83 S5        30.01R
$$
  *****  WEATHER ELSEWHERE ACROSS MINNESOTA  *****

CITY           SKY/WX    TMP DP  RH WIND       PRES   REMARKS
DULUTH         CLEAR     73  64  73 W6        30.00R
INTRNTL FALLS  CLEAR     68  62  81 CALM      29.95S
ELY            CLEAR     72  61  68 W3        29.98R
CLOQUET        CLEAR     73  61  64 SW3       30.00S
WHEATON        CLEAR     79  68  69 S8        29.98S
BRAINERD       CLEAR     75  64  68 S5        30.01R
HIBBING        CLEAR     69  64  84 SW3       29.99R
ALEXANDRIA     PTCLDY    78  66  66 S7        30.02S
SAINT CLOUD    CLEAR     75  68  78 S5        30.02R
MINNEAPOLIS    CLEAR     82  63  52 W6        30.02S
$$

  *****  WEATHER ACROSS SOUTH DAKOTA  *****

CITY           SKY/WX    TMP DP  RH WIND       PRES   REMARKS
SIOUX FALLS    PTCLDY    78  60  53 S9        30.05R
BROOKINGS      CLEAR     76  66  71 S8        30.04S
WATERTOWN      CLEAR     77  66  68 S9        30.02S
HURON          PTCLDY    82  60  47 S9        29.98S
SISSETON         N/A     78  63  59 S10       29.94F
ABERDEEN       CLEAR     78  62  57 S9        29.94S
MITCHELL       CLEAR     81  62  52 S9        30.01S
PIERRE         MOCLDY    86  54  33 SE10      29.93F
MOBRIDGE       CLEAR     89  51  27 S12       29.89S
RAPID CITY     PTCLDY    83  58  42 SE3       29.98S
$$

  *****  SOME WEATHER IN NEARBY STATES *****

CITY           SKY/WX    TMP DP  RH WIND       PRES   REMARKS
GLASGOW MT     CLEAR     82  56  40 E9        29.95S
GREAT FALLS MT CLEAR     85  44  23 N12       30.04R
CHEYENNE WY    CLEAR     78  59  51 SE15      30.18R
SCOTTSBLUFF NE CLEAR     85  59  41 SE12      30.05R
OMAHA NE       PTCLDY    81  70  69 E5        30.05R
DES MOINES IA  PTCLDY    81  62  52 NE5       30.04R
DAVENPORT IA   CLEAR     73  67  81 N5        30.03R
CHICAGO IL     CLOUDY    78  64  61 CALM      29.99R
EAU CLAIRE WI  CLEAR     75  65  70 CALM      30.01S
LA CROSSE WI   CLEAR     78  66  66 CALM      30.02R
$$

  *****  SOME NATIONAL WEATHER *****

CITY           SKY/WX    TMP DP  RH WIND       PRES   REMARKS
LA GUARDIA NY  MOCLDY    78  74  87 SW9       29.87S
RALEIGH NC     MOCLDY    86  73  65 SW9       30.00R HX  93
ATLANTA GA     MOCLDY    78  74  87 NW8       30.05R
NEW ORLEANS LA MOCLDY    84  77  79 N3        29.92S HX  94
OKLAHOMA CITY  CLOUDY    82  73  74 SE7       29.93F THUNDER
ALBUQUERQUE NM CLOUDY    80  54  40 W17       30.19S
SALT LAKE CITY PTCLDY    97  34  11 N8        29.98S HX  91
LOS ANGELES CA MOSUNNY   74  66  76 W14       29.87S
BOISE ID       SUNNY     98  28   8 NW9       29.90F HX  92
SEATTLE WA     MOSUNNY   83  58  42 N12       30.03F
$$

*** WEATHER ACROSS MANITOBA...SASKATCHEWAN AND ONTARIO ***
                ***ONTARIO***

CITY           SKY/WX    TMP DP  RH WIND       PRES   REMARKS
GERALDTON      CLEAR     66  57  72 SW8       29.85
THUNDER BAY    CLEAR     70  61  73 SW5       29.89R
SIOUX LOOKOUT  PTCLDY    68  61  77 W5        29.90R
TORONTO        CLEAR     75  61  60 W7        29.88R
BIG TROUT LK     N/A     59  57  94 SW5       29.70F
PICKLE LAKE    MOCLDY    75  57  53 W10       29.81R
DRYDEN         CLEAR     73  59  60 W6        29.92R
KENORA         PTCLDY    75  57  53 W3        29.94S
$$
                *** MANITOBA***

CITY           SKY/WX    TMP DP  RH WIND       PRES   REMARKS
BRANDON        PTCLDY    75  68  78 W2        29.95
DAUPHIN        MOCLDY    73  64  73 W7        29.93R
ISLAND LAKE    PTCLDY    70  52  52 NW8       29.80R
PILOT MOUND      N/A     75  66  73 S2          N/A
THE PAS        PTCLDY    72  52  49 NW13G20   29.92
THOMPSON       PTCLDY    64  54  68 W13G20    29.78S
WINNIPEG       PTCLDY    75  63  64 S6        29.92
LYNN LAKE      CLOUDY    57  48  72 MISG      29.92R
CHURCHILL      LGT RAIN  54  52  94 S8        29.68
GILLAM         LGT RAIN  61  57  88 NW20G25   29.70R
$$
                ***SASKATCHEWAN***

CITY           SKY/WX    TMP DP  RH WIND       PRES   REMARKS
ESTEVAN        PTCLDY    75  68  78 E5        29.98
KINDERSLEY     PTCLDY    72  55  56 NE6       30.06S
LLOYDMINSTER   MOSUNNY   70  50  49 NW5       30.06
PRINCE ALBERT  PTCLDY    72  52  49 NW8       30.00
REGINA         PTCLDY    73  59  60 N7        30.02
YORKTON        CLEAR     70  57  64 NW7       29.99R
N. BATTLEFORD  CLEAR     70  54  56 NW5       30.06S
LA RONGE       PTCLDY    68  48  49 NW9       30.00R
SASKATOON      MOCLDY    70  52  52 NW7       30.05R
SWIFT CURRENT  CLEAR     72  57  60 NE8       30.06S
$$
NOTE: THESE ARE AUTOMATED STATIONS WITH LIMITED QUALITY CONTROL
      "FAIR" INDICATES FEW OR NO CLOUDS BELOW 12,000 FEET WITH NO
      SIGNIFICANT WEATHER AND/OR OBSTRUCTIONS TO VISIBILITY.
      SKY/WX - SKY CONDITION AND SIGNIFICANT WEATHER.
      TMP - AIR TEMPERATURE.    DP   - DEWPOINT TEMPERATURE.
      RH  - RELATIVE HUMIDITY.  PRES - PRESSURE.
      HX  - HEAT INDEX.         WCI  - WIND CHILL INDEX.
$




USA.gov is the U.S. government's official web portal to all federal, state and local government web resources and services.